Volk, WI

7:52 AM CDT on July 24, 2017 (GMT -0500)
Volk

Weather History for KVOK - November, 2014

Change the Weather History Date:

Tuesday, November 4, 2014

  Actual Average Record
Temperature  
Mean Temperature 48 °F -  
Max Temperature 57 °F 46 °F 73 °F (2008)
Min Temperature 37 °F 33 °F 15 °F (2011)
Degree Days  
Heating Degree Days 17    
Moisture  
Dew Point 45 °F    
Average Humidity 87    
Maximum Humidity 100    
Minimum Humidity 47    
Precipitation  
Precipitation 0.02 in - - ()
Sea Level Pressure  
Sea Level Pressure 29.84 in    
Wind  
Wind Speed 12 mph (West)    
Max Wind Speed 18 mph    
Max Gust Speed 29 mph    
Visibility 10 miles    
Events Rain    
Averages and records for this station are not official NWS values.
T = Trace of Precipitation, MM = Missing Value Source: NWS Daily Summary

Daily Weather History Graph

Daily Weather History Graph

Search for Another Location

Airport or City:

Trip Planner

Search our weather history database for the weather conditions in past years. The results will help you decide how hot, cold, wet, or windy it might be!

Date:

Astronomy

Nov. 04, 2014 Rise Set
Actual Time 6:41 AM CST 4:47 PM CST
Civil Twilight 6:11 AM CST 5:17 PM CST
Nautical Twilight 5:36 AM CST 5:51 PM CST
Astronomical Twilight 5:03 AM CST 6:25 PM CST
Moon 3:38 PM CST (11/4) 3:53 AM CST (11/4)
Length of Visible Light 11h 06m
Length of Day
10h 05m
Waxing Gibbous, 94% of the Moon is Illuminated
Nov 4
Waxing Gibbous
Nov 6
Full
Nov 14
Last Quarter
Nov 22
New
Nov 29
First Quarter

Hourly Weather History & Observations

Time (CST) Temp. Windchill Dew Point Humidity Pressure Visibility Wind Dir Wind Speed Gust Speed Precip Events Conditions
12:13 AM 55.4 °F - 55.4 °F 100% 29.75 in 10.0 mi SSW 8.1 mph - N/A   Mostly Cloudy
12:23 AM 55.4 °F - 55.4 °F 100% 29.75 in 10.0 mi SW 8.1 mph - N/A   Mostly Cloudy
12:48 AM 55.4 °F - 55.4 °F 100% 29.75 in 7.0 mi SW 8.1 mph - N/A   Mostly Cloudy
12:53 AM 55.4 °F - 55.4 °F 100% 29.74 in 6.0 mi SSW 9.2 mph - N/A   Overcast
12:58 AM 55.4 °F - 55.4 °F 100% 29.76 in 7.0 mi SW 9.2 mph - N/A   Overcast
1:01 AM 55.4 °F - 55.4 °F 100% 29.74 in 7.0 mi SW 10.4 mph - N/A Rain Light Rain
1:06 AM 55.4 °F - 55.4 °F 100% 29.74 in 6.0 mi SW 9.2 mph - N/A   Light Drizzle
1:07 AM 55.4 °F - 55.4 °F 100% 29.74 in 6.0 mi SW 8.1 mph - N/A Rain Light Rain
1:17 AM 55.4 °F - 55.4 °F 100% 29.74 in 9.0 mi SW 9.2 mph - N/A Rain Light Rain
1:30 AM 57.2 °F - 57.2 °F 100% 29.74 in 10.0 mi SW 8.1 mph - N/A   Overcast
1:35 AM 57.2 °F - 57.2 °F 100% 29.74 in 10.0 mi SW 9.2 mph - N/A   Overcast
1:58 AM 56.7 °F - 56.7 °F 100% 29.75 in 10.0 mi SW 12.7 mph 20.7 mph 0.02 in   Overcast
2:08 AM 57.2 °F - 57.2 °F 100% 29.73 in 10.0 mi WSW 10.4 mph 20.7 mph N/A   Overcast
2:13 AM 57.2 °F - 57.2 °F 100% 29.73 in 10.0 mi WSW 15.0 mph 18.4 mph N/A   Overcast
2:27 AM 57.2 °F - 57.2 °F 100% 29.74 in 10.0 mi West 12.7 mph - N/A   Light Drizzle
2:43 AM 55.4 °F - 55.4 °F 100% 29.75 in 10.0 mi West 12.7 mph 24.2 mph N/A   Overcast
2:58 AM 53.6 °F - 53.6 °F 100% 29.77 in 10.0 mi West 12.7 mph - 0.00 in   Overcast
2:59 AM 53.6 °F - 53.6 °F 100% 29.75 in 10.0 mi WNW 17.3 mph - N/A   Overcast
3:09 AM 51.8 °F - 51.8 °F 100% 29.76 in 10.0 mi West 16.1 mph 25.3 mph N/A   Overcast
3:19 AM 51.8 °F - 51.8 °F 100% 29.77 in 10.0 mi West 15.0 mph 21.9 mph N/A   Overcast
3:24 AM 51.8 °F - 51.8 °F 100% 29.77 in 10.0 mi West 16.1 mph 21.9 mph N/A   Overcast
3:29 AM 51.8 °F - 51.8 °F 100% 29.77 in 10.0 mi West 15.0 mph 21.9 mph N/A   Overcast
3:35 AM 50.0 °F - 50.0 °F 100% 29.78 in 10.0 mi West 17.3 mph 23.0 mph N/A   Overcast
3:45 AM 50.0 °F - 50.0 °F 100% 29.79 in 10.0 mi West 17.3 mph - N/A   Overcast
3:58 AM 49.1 °F - 49.1 °F 100% 29.82 in 10.0 mi West 17.3 mph 24.2 mph N/A   Overcast
4:03 AM 48.2 °F - 48.2 °F 100% 29.80 in 10.0 mi West 18.4 mph 24.2 mph N/A   Overcast
4:23 AM 48.2 °F - 48.2 °F 100% 29.80 in 10.0 mi West 18.4 mph 28.8 mph N/A   Overcast
4:28 AM 48.2 °F - 48.2 °F 100% 29.80 in 10.0 mi WNW 16.1 mph 28.8 mph N/A   Overcast
4:58 AM 46.8 °F - 46.8 °F 100% 29.83 in 10.0 mi West 12.7 mph - N/A   Overcast
5:58 AM 45.5 °F 38.6 °F 45.5 °F 100% 29.85 in 10.0 mi West 16.1 mph - N/A   Overcast
6:23 AM 44.6 °F 37.8 °F 44.6 °F 100% 29.84 in 10.0 mi West 15.0 mph - N/A   Overcast
6:48 AM 44.6 °F 37.8 °F 44.6 °F 100% 29.85 in 10.0 mi West 15.0 mph 24.2 mph N/A   Overcast
6:58 AM 44.6 °F 39.2 °F 44.6 °F 100% 29.88 in 10.0 mi West 10.4 mph 18.4 mph N/A   Overcast
7:49 AM 42.8 °F 36.6 °F 41.0 °F 93% 29.87 in 10.0 mi WNW 11.5 mph 20.7 mph N/A   Overcast
7:58 AM 42.8 °F 35.8 °F 41.0 °F 93% 29.90 in 10.0 mi WNW 13.8 mph - N/A   Overcast
8:18 AM 42.8 °F 36.6 °F 41.0 °F 93% 29.88 in 10.0 mi West 11.5 mph 19.6 mph N/A   Overcast
8:58 AM 42.8 °F 35.8 °F 39.2 °F 87% 29.90 in 10.0 mi West 13.8 mph 19.6 mph N/A   Overcast
9:58 AM 42.8 °F 34.8 °F 37.4 °F 81% 29.93 in 10.0 mi West 17.3 mph 19.6 mph N/A   Overcast
10:18 AM 44.6 °F 37.8 °F 37.4 °F 76% 29.91 in 10.0 mi West 15.0 mph 24.2 mph N/A   Overcast
10:23 AM 44.6 °F 36.9 °F 37.4 °F 76% 29.91 in 10.0 mi West 18.4 mph 24.2 mph N/A   Overcast
10:50 AM 46.4 °F 39.5 °F 35.6 °F 66% 29.92 in 10.0 mi West 17.3 mph 24.2 mph N/A   Mostly Cloudy
10:58 AM 48.2 °F - 35.6 °F 62% 29.94 in 10.0 mi West 15.0 mph 23.0 mph N/A   Mostly Cloudy
11:16 AM 46.4 °F 39.8 °F 33.8 °F 62% 29.92 in 10.0 mi WNW 16.1 mph 24.2 mph N/A   Scattered Clouds
11:58 AM 50.0 °F - 33.8 °F 54% 29.93 in 10.0 mi WSW 13.8 mph 21.9 mph N/A   Scattered Clouds
12:58 PM 50.0 °F - 33.8 °F 54% 29.91 in 10.0 mi West 16.1 mph 23.0 mph N/A   Scattered Clouds
1:58 PM 51.8 °F - 32.0 °F 47% 29.91 in 10.0 mi West 13.8 mph 24.2 mph N/A   Scattered Clouds
2:58 PM 51.8 °F - 33.8 °F 50% 29.91 in 10.0 mi West 12.7 mph - N/A   Mostly Cloudy
3:58 PM 50.0 °F - 33.8 °F 54% 29.91 in 10.0 mi WSW 9.2 mph - N/A   Mostly Cloudy
4:58 PM 50.0 °F - 33.8 °F 54% 29.90 in 10.0 mi SW 8.1 mph - N/A   Mostly Cloudy
5:58 PM 48.2 °F - 35.6 °F 62% 29.90 in 10.0 mi SSW 10.4 mph - N/A   Partly Cloudy
6:58 PM 48.2 °F - 35.6 °F 62% 29.91 in 10.0 mi WSW 12.7 mph - N/A   Partly Cloudy
7:58 PM 46.4 °F 39.5 °F 32.0 °F 57% 29.94 in 10.0 mi West 17.3 mph 21.9 mph N/A   Partly Cloudy
8:58 PM 44.6 °F 37.4 °F 33.8 °F 66% 29.98 in 10.0 mi West 16.1 mph 26.5 mph N/A   Mostly Cloudy
9:58 PM 41.0 °F 34.7 °F 30.2 °F 65% 30.00 in 10.0 mi West 10.4 mph - N/A   Scattered Clouds
10:58 PM 39.2 °F 33.0 °F 30.2 °F 70% 30.00 in 10.0 mi West 9.2 mph - N/A   Scattered Clouds
11:58 PM 37.9 °F 30.9 °F 30.0 °F 73% 30.03 in 10.0 mi West 10.4 mph - N/A   Clear